Weather History for TNCC - September, 2013

Change the Weather History Date:

Thursday, September 26, 2013

  Actual Average Record
Temperature  
Mean Temperature 80 °F -  
Max Temperature 89 °F 88 °F 96 °F (2007)
Min Temperature 71 °F 77 °F 71 °F (2013)
Cooling Degree Days 15    
Growing Degree Days 30 (Base 50)    
Moisture  
Dew Point 76 °F    
Average Humidity 81    
Maximum Humidity 94    
Minimum Humidity 66    
Precipitation  
Precipitation 1.34 in 0.10 in - ()
Sea Level Pressure  
Sea Level Pressure 29.83 in    
Wind  
Wind Speed 11 mph ()    
Max Wind Speed 24 mph    
Max Gust Speed 37 mph    
Visibility 7.4 miles    
Events Rain , Thunderstorm    
Averages and records for this station are not official NWS values.
T = Trace of Precipitation, MM = Missing Value Source: Averaged Metar Reports

Daily Weather History Graph

Daily Weather History Graph

Search for Another Location

Airport or City:

Trip Planner

Search our weather history database for the weather conditions in past years. The results will help you decide how hot, cold, wet, or windy it might be!

Date:

Astronomy

Sep. 26, 2013 Rise Set
Actual Time 6:24 AM AST 6:29 PM AST
Civil Twilight 6:03 AM AST 6:50 PM AST
Nautical Twilight 5:39 AM AST 7:14 PM AST
Astronomical Twilight 5:14 AM AST 7:39 PM AST
Moon No Moon Rise 12:24 PM AST (9/26)
Length of Visible Light 12h 46m
Length of Day
12h 04m
Waning Gibbous, 55% of the Moon is Illuminated
Sep 26
Waning Gibbous
Sep 26
Last Quarter
Oct 4
New
Oct 11
First Quarter
Oct 18
Full

Hourly Weather History & Observations

Time (AST) Temp. Heat Index Dew Point Humidity Pressure Visibility Wind Dir Wind Speed Gust Speed Precip Events Conditions
12:00 AM 82.4 °F 90.9 °F 77.0 °F 84% 29.86 in 6.2 mi ESE 10.4 mph - N/A   Partly Cloudy
1:00 AM 82.4 °F 90.9 °F 77.0 °F 84% 29.83 in 6.2 mi ESE 9.2 mph - N/A   Partly Cloudy
2:00 AM 84 °F - 78 °F 76% 29.84 in 19 mi ESE 12.7 mph - -   Scattered Clouds
2:00 AM 82.4 °F 90.9 °F 77.0 °F 84% 29.83 in 6.2 mi ESE 12.7 mph - N/A   Partly Cloudy
3:00 AM 82.4 °F 90.9 °F 77.0 °F 84% 29.83 in 6.2 mi ESE 11.5 mph - N/A   Partly Cloudy
4:00 AM 82.4 °F 90.9 °F 77.0 °F 84% 29.83 in 6.2 mi ESE 10.4 mph - N/A   Partly Cloudy
5:00 AM 82 °F - 77 °F 79% 29.81 in 19 mi ESE 9.2 mph - -  
5:00 AM 82.4 °F 90.9 °F 77.0 °F 84% 29.80 in 6.2 mi ESE 11.5 mph - N/A   Partly Cloudy
5:46 AM 75.2 °F - 71.6 °F 89% 29.86 in 0.9 mi SE 24.2 mph 36.8 mph N/A Rain , Thunderstorm Heavy Thunderstorms and Rain
7:00 AM 73.4 °F - 71.6 °F 94% 29.86 in 6.2 mi SE 9.2 mph - N/A   Scattered Clouds
8:00 AM 76 °F - 74 °F 90% 29.88 in 7 mi ESE 17.3 mph - - Rain Light Rain
8:00 AM 75.2 °F - 73.4 °F 94% 29.86 in 6.2 mi ESE 17.3 mph - N/A Rain Light Rain
9:00 AM 75.2 °F - 73.4 °F 94% 29.86 in 6.2 mi ESE 9.2 mph - N/A Rain Light Rain
10:00 AM 80.6 °F 85.4 °F 73.4 °F 79% 29.86 in 6.2 mi SSE 10.4 mph - N/A   Partly Cloudy
11:00 AM 87 °F - 79 °F 71% 29.87 in 25 mi ESE 13.8 mph - -   Partly Cloudy
11:00 AM 86.0 °F 99.3 °F 78.8 °F 79% 29.86 in 6.2 mi ESE 11.5 mph - N/A   Partly Cloudy
12:00 PM 89.6 °F 102.2 °F 77.0 °F 66% 29.86 in 6.2 mi SE 16.1 mph - N/A   Scattered Clouds
1:00 PM 89.6 °F 102.2 °F 77.0 °F 66% 29.83 in 6.2 mi SE 16.1 mph - N/A   Scattered Clouds
2:00 PM 87.8 °F 102.5 °F 78.8 °F 75% 29.80 in 6.2 mi East 15.0 mph - N/A   Partly Cloudy
3:00 PM 87.8 °F 102.5 °F 78.8 °F 75% 29.77 in 6.2 mi East 13.8 mph - N/A   Partly Cloudy
4:00 PM 87.8 °F 99.7 °F 77.0 °F 70% 29.77 in 6.2 mi East 12.7 mph - N/A   Partly Cloudy
5:00 PM 86.0 °F 96.9 °F 77.0 °F 74% 29.77 in 6.2 mi ESE 13.8 mph - N/A   Partly Cloudy
6:00 PM 84.2 °F 94.1 °F 77.0 °F 79% 29.77 in 6.2 mi ESE 12.7 mph - N/A   Partly Cloudy
7:00 PM 84.2 °F 94.1 °F 77.0 °F 79% 29.80 in 6.2 mi ESE 13.8 mph - N/A   Partly Cloudy
8:00 PM 84.2 °F 94.1 °F 77.0 °F 79% 29.83 in 6.2 mi ESE 13.8 mph - N/A   Partly Cloudy
9:00 PM 82.4 °F 90.9 °F 77.0 °F 84% 29.83 in 6.2 mi ESE 12.7 mph - N/A   Partly Cloudy
10:00 PM 82.4 °F 90.9 °F 77.0 °F 84% 29.83 in 6.2 mi ESE 10.4 mph - N/A   Partly Cloudy
11:00 PM 83 °F - 77 °F 76% 29.85 in 19 mi ESE 9.2 mph - -   Scattered Clouds
11:00 PM 82.4 °F 90.9 °F 77.0 °F 84% 29.83 in 6.2 mi ESE 9.2 mph - N/A   Partly Cloudy